Tracking 18793 objects as of 22-September-2017
HD Live streaming from Space Station
objects crossing your sky now

FENGYUN 2B AKM

Track FENGYUN 2B AKM now!


NORAD ID: 26460
Int'l Code: 2000-032C
Perigee: 35,734.3 km
Apogee: 35,929.5 km
Inclination: 12.5 °
Period: 1,438.0 minutes
Semi major axis: 42202 km
RCS: 7.9432 m2 (large)
Launch date: June 25, 2000
Source: People's Republic of China (PRC)
Launch site: Xichang Space Center, China (XSC)

Note: This is a ROCKET BODY
aabbcc
Your satellite tracking list
Your tracking list is empty





NASA's NSSDC Master Catalog

Two Line Element Set (TLE):
1 26460U 00032C   17263.34964710 -.00000179 +00000-0 +00000-0 0  9994
2 26460 012.5017 032.0723 0023131 310.6707 049.1604 01.00135864090211
Source of the keplerian elements: AFSPC